CW2234 Weather Reports


time (UTC)temp
C
wind
direction
speed
KPH
gust
KPH
rain 1hr
cm
rain 24hr
cm
rain mn
cm
humidity
%
barometer
mb
20260505040056 15 0 0.0 6.4 0.00 0.00 0.00 84 1015.1
20260505034553 15 0 1.6 6.4 0.00 0.00 0.00 84 1015.0
20260505033110 15 80 0.0 4.8 0.00 0.00 0.00 84 1014.9
20260505031550 15 74 1.6 6.4 0.00 0.00 0.00 84 1014.7
20260505030053 15 0 1.6 9.7 0.00 0.00 0.00 84 1014.7
20260505024555 15 94 3.2 11.3 0.00 0.00 0.00 83 1014.5
20260505023103 16 98 1.6 11.3 0.00 0.00 0.00 81 1014.5
20260505021553 16 0 1.6 9.7 0.00 0.00 0.00 79 1014.6
20260505020055 16 146 0.0 11.3 0.00 0.00 0.00 79 1014.5
20260505014555 16 150 1.6 16.1 0.00 0.00 0.00 78 1014.6
20260505013055 17 0 4.8 12.9 0.00 0.00 0.00 77 1014.6
20260505011558 17 135 4.8 19.3 0.00 0.00 0.00 73 1014.5
20260505010058 17 0 1.6 14.5 0.00 0.00 0.00 70 1014.7
20260505004601 17 134 1.6 9.7 0.00 0.00 0.00 73 1014.7
20260505003057 17 205 1.6 11.3 0.00 0.00 0.00 77 1014.8
20260505001557 17 142 3.2 14.5 0.00 0.00 0.00 75 1015.0
20260505000059 18 125 1.6 17.7 0.00 0.00 0.00 74 1014.9
20260504234617 18 157 1.6 16.1 0.00 0.00 0.00 74 1014.8
20260504233052 18 118 6.4 22.5 0.00 0.00 0.00 73 1014.7
20260504231601 18 180 3.2 16.1 0.00 0.00 0.00 73 1014.6
20260504230053 19 93 4.8 17.7 0.00 0.00 0.00 69 1014.6
20260504224600 18 55 4.8 19.3 0.00 0.00 0.00 70 1014.9
20260504223052 19 309 3.2 16.1 0.00 0.00 0.00 72 1015.0
20260504221602 18 325 4.8 19.3 0.00 0.00 0.00 74 1015.0
20260504220055 18 105 4.8 12.9 0.00 0.00 0.00 72 1015.2
20260504214556 18 94 3.2 24.1 0.00 0.00 0.00 73 1015.5
20260504213103 18 24 4.8 17.7 0.00 0.00 0.00 74 1015.7
20260504211602 18 127 4.8 16.1 0.00 0.00 0.00 72 1015.9
20260504210104 19 127 1.6 9.7 0.00 0.00 0.00 71 1015.8
20260504204636 19 116 3.2 16.1 0.00 0.00 0.00 71 1015.8
20260504203051 19 33 3.2 14.5 0.00 0.00 0.00 70 1015.8
20260504201552 19 138 3.2 12.9 0.00 0.00 0.00 71 1015.7
20260504200057 19 126 4.8 17.7 0.00 0.00 0.00 67 1015.8
20260504194553 19 92 3.2 17.7 0.00 0.00 0.00 67 1015.8
20260504193053 20 57 4.8 19.3 0.00 0.00 0.00 65 1015.8
20260504191552 20 175 3.2 16.1 0.00 0.00 0.00 63 1015.9
20260504190059 19 143 3.2 12.9 0.00 0.00 0.00 64 1015.7
20260504184602 19 118 4.8 17.7 0.00 0.00 0.00 64 1015.9
20260504183059 18 115 3.2 17.7 0.00 0.00 0.00 68 1015.9
20260504181551 18 115 3.2 11.3 0.00 0.00 0.00 66 1016.0
20260504180050 18 113 3.2 14.5 0.00 0.00 0.00 66 1016.0
20260504174553 18 149 1.6 11.3 0.00 0.00 0.00 68 1016.0
20260504173052 18 151 4.8 14.5 0.00 0.00 0.00 69 1015.9
20260504171553 18 132 1.6 12.9 0.00 0.00 0.00 68 1015.8
20260504100103 14 0 0.0 6.4 0.00 0.00 0.00 82 1014.2
20260504081555 15 118 0.0 6.4 0.00 0.00 0.00 81 1015.3
20260504070103 15 218 3.2 11.3 0.00 0.00 0.00 80 1015.7
20260504044602 15 178 1.6 11.3 0.00 0.00 0.00 79 1014.8
20260504043054 15 130 3.2 11.3 0.00 0.00 0.00 80 1014.9
20260504041556 15 134 1.6 6.4 0.00 0.00 0.00 81 1014.9